• In Hungary
  • List of Countries
  • For 7 days
  • Water Temperature
  • Satellite Maps
  • Weather Map
  • News
  • Weather Widgets
  • user-avatar
    Login

    Hourly Weather Ankudiniha

    Today, 13 November, Tuesday

    Time Temperature Precipitation Wind Pressure Humidity
    00:00 -6°C° 0 mm 5 mps 759 mmHg 51%
    01:00 -6°C° 0 mm 5 mps 758 mmHg 52%
    02:00 -6°C° 0 mm 5 mps 758 mmHg 52%
    03:00 -6°C° 0 mm 5 mps 758 mmHg 52%
    04:00 -6°C° 0 mm 5 mps 757 mmHg 51%
    05:00 -6°C° 0 mm 5 mps 757 mmHg 51%
    06:00 -6°C° 0 mm 5 mps 757 mmHg 51%
    07:00 -6°C° 0 mm 6 mps 756 mmHg 50%
    08:00 -5°C° 0 mm 6 mps 756 mmHg 50%
    09:00 -5°C° 0.1 mm 6 mps 755 mmHg 54%
    10:00 -5°C° 0.1 mm 6 mps 755 mmHg 57%
    11:00 -5°C° 0.1 mm 6 mps 754 mmHg 61%
    12:00 -5°C° 0.2 mm 6 mps 754 mmHg 60%
    13:00 -4°C° 0.2 mm 6 mps 753 mmHg 59%
    14:00 -4°C° 0.2 mm 6 mps 753 mmHg 58%
    15:00 -4°C° 0 mm 6 mps 752 mmHg 57%
    16:00 -3°C° 0 mm 6 mps 752 mmHg 56%
    17:00 -3°C° 0 mm 6 mps 752 mmHg 55%
    18:00 -3°C° 0 mm 6 mps 751 mmHg 56%
    19:00 -3°C° 0 mm 6 mps 751 mmHg 57%
    20:00 -3°C° 0 mm 6 mps 750 mmHg 58%
    21:00 -4°C° 0.2 mm 6 mps 750 mmHg 65%
    22:00 -4°C° 0.2 mm 5 mps 750 mmHg 71%
    23:00 -4°C° 0.2 mm 5 mps 750 mmHg 78%

    Tomorrow, 14 November, Wednesday

    Time Temperature Precipitation Wind Pressure Humidity
    00:00 -4°C° 0.5 mm 5 mps 749 mmHg 79%
    01:00 -4°C° 0.5 mm 5 mps 749 mmHg 80%
    02:00 -4°C° 0.5 mm 5 mps 749 mmHg 81%
    03:00 -4°C° 0.6 mm 5 mps 748 mmHg 79%
    04:00 -4°C° 0.6 mm 5 mps 748 mmHg 78%
    05:00 -3°C° 0.6 mm 4 mps 747 mmHg 77%
    06:00 -4°C° 0.5 mm 4 mps 747 mmHg 78%
    07:00 -4°C° 0.5 mm 4 mps 747 mmHg 79%
    08:00 -4°C° 0.5 mm 4 mps 747 mmHg 80%
    09:00 -4°C° 0.5 mm 4 mps 748 mmHg 80%
    10:00 -4°C° 0.5 mm 4 mps 748 mmHg 81%
    11:00 -3°C° 0.5 mm 4 mps 748 mmHg 81%
    12:00 -2°C° 0.3 mm 3 mps 748 mmHg 81%
    13:00 -2°C° 0.3 mm 3 mps 748 mmHg 81%
    14:00 -2°C° 0.3 mm 3 mps 748 mmHg 81%
    15:00 -2°C° 0.2 mm 3 mps 748 mmHg 83%
    16:00 -2°C° 0.2 mm 2 mps 749 mmHg 84%
    17:00 -3°C° 0.2 mm 2 mps 749 mmHg 86%
    18:00 -3°C° 0.1 mm 2 mps 749 mmHg 86%
    19:00 -3°C° 0.1 mm 2 mps 750 mmHg 87%
    20:00 -3°C° 0.1 mm 2 mps 750 mmHg 87%
    21:00 -3°C° 0.1 mm 2 mps 750 mmHg 88%
    22:00 -1°C° 0.1 mm 1 mps 751 mmHg 88%
    23:00 -1°C° 0.1 mm 1 mps 751 mmHg 89%

    Day after tomorrow, 15 November, Thursday

    Time Temperature Precipitation Wind Pressure Humidity
    00:00 -1°C° 0.1 mm 1 mps 751 mmHg 89%
    01:00 -1°C° 0.1 mm 1 mps 752 mmHg 89%
    02:00 -1°C° 0.1 mm 1 mps 752 mmHg 89%
    03:00 -1°C° 0.1 mm 1 mps 752 mmHg 90%
    04:00 -1°C° 0.1 mm 1 mps 753 mmHg 91%
    05:00 -1°C° 0.1 mm 1 mps 753 mmHg 91%
    06:00 -1°C° 0 mm 1 mps 753 mmHg 92%
    07:00 -1°C° 0 mm 1 mps 754 mmHg 93%
    08:00 -2°C° 0 mm 1 mps 754 mmHg 94%
    09:00 -1°C° 0 mm 1 mps 755 mmHg 91%
    10:00 0°C° 0 mm 1 mps 755 mmHg 89%
    11:00 0°C° 0 mm 1 mps 755 mmHg 87%
    12:00 0°C° 0 mm 1 mps 756 mmHg 88%
    13:00 0°C° 0 mm 1 mps 756 mmHg 89%
    14:00 +1°C° 0 mm 1 mps 756 mmHg 89%
    15:00 0°C° 0 mm 1 mps 757 mmHg 91%
    16:00 0°C° 0 mm 1 mps 757 mmHg 93%
    17:00 -1°C° 0 mm 1 mps 757 mmHg 94%
    18:00 -1°C° 0 mm 1 mps 757 mmHg 95%
    19:00 -1°C° 0 mm 1 mps 758 mmHg 95%
    20:00 0°C° 0 mm 1 mps 758 mmHg 95%
    21:00 0°C° 0 mm 1 mps 758 mmHg 95%
    22:00 -1°C° 0 mm 1 mps 758 mmHg 95%
    23:00 -1°C° 0 mm 1 mps 759 mmHg 96%

    16 November, Friday

    Time Temperature Precipitation Wind Pressure Humidity
    00:00 -1°C° 0 mm 1 mps 759 mmHg 96%
    01:00 -1°C° 0 mm 1 mps 759 mmHg 96%
    02:00 -1°C° 0 mm 1 mps 759 mmHg 95%
    03:00 -1°C° 0 mm 1 mps 759 mmHg 95%
    04:00 -1°C° 0 mm 1 mps 759 mmHg 95%
    05:00 -4°C° 0 mm 2 mps 759 mmHg 95%
    06:00 -4°C° 0 mm 2 mps 759 mmHg 95%
    07:00 -4°C° 0 mm 2 mps 759 mmHg 95%
    08:00 -3°C° 0 mm 2 mps 759 mmHg 95%
    09:00 -2°C° 0 mm 2 mps 759 mmHg 93%
    10:00 -1°C° 0 mm 3 mps 759 mmHg 90%
    11:00 0°C° 0 mm 3 mps 759 mmHg 88%
    12:00 0°C° 0 mm 3 mps 759 mmHg 89%
    13:00 0°C° 0 mm 3 mps 759 mmHg 90%
    14:00 0°C° 0 mm 3 mps 759 mmHg 91%
    15:00 0°C° 0 mm 3 mps 759 mmHg 92%
    16:00 0°C° 0 mm 3 mps 759 mmHg 93%
    17:00 0°C° 0 mm 3 mps 758 mmHg 95%
    18:00 0°C° 0 mm 3 mps 758 mmHg 95%
    19:00 +1°C° 0 mm 2 mps 758 mmHg 96%
    20:00 +1°C° 0 mm 2 mps 758 mmHg 96%
    21:00 +1°C° 0 mm 2 mps 758 mmHg 96%
    22:00 +1°C° 0 mm 2 mps 758 mmHg 96%
    23:00 +1°C° 0 mm 2 mps 758 mmHg 97%

    17 November, Saturday

    Time Temperature Precipitation Wind Pressure Humidity
    00:00 +1°C° 0 mm 2 mps 758 mmHg 97%
    01:00 +1°C° 0 mm 2 mps 758 mmHg 97%
    02:00 +1°C° 0 mm 2 mps 758 mmHg 98%
    03:00 +1°C° 0 mm 2 mps 757 mmHg 98%
    04:00 +1°C° 0 mm 2 mps 757 mmHg 98%
    05:00 +1°C° 0 mm 2 mps 757 mmHg 98%
    06:00 +2°C° 0 mm 2 mps 757 mmHg 98%
    07:00 +2°C° 0 mm 2 mps 756 mmHg 98%
    08:00 +2°C° 0 mm 2 mps 756 mmHg 98%
    09:00 +1°C° 0 mm 3 mps 756 mmHg 97%
    10:00 +1°C° 0 mm 3 mps 755 mmHg 97%
    11:00 +2°C° 0 mm 3 mps 755 mmHg 96%
    12:00 +2°C° 0 mm 3 mps 754 mmHg 96%
    13:00 +1°C° 0 mm 3 mps 754 mmHg 95%
    14:00 0°C° 0 mm 4 mps 753 mmHg 95%
    15:00 +1°C° 0.1 mm 3 mps 752 mmHg 95%
    16:00 +1°C° 0.1 mm 3 mps 752 mmHg 95%
    17:00 +1°C° 0.1 mm 3 mps 751 mmHg 95%
    18:00 +1°C° 0.1 mm 3 mps 751 mmHg 95%
    19:00 +1°C° 0.1 mm 3 mps 750 mmHg 95%
    20:00 +2°C° 0.1 mm 3 mps 749 mmHg 95%
    21:00 +1°C° 0 mm 3 mps 748 mmHg 95%
    22:00 +1°C° 0 mm 3 mps 748 mmHg 95%
    23:00 +1°C° 0 mm 3 mps 747 mmHg 96%

    18 November, Sunday

    Time Temperature Precipitation Wind Pressure Humidity
    00:00 +1°C° 0 mm 3 mps 746 mmHg 95%
    01:00 +1°C° 0 mm 3 mps 746 mmHg 94%
    02:00 +1°C° 0 mm 3 mps 745 mmHg 93%
    03:00 +1°C° 0.1 mm 3 mps 745 mmHg 94%
    04:00 +1°C° 0.1 mm 3 mps 744 mmHg 94%
    05:00 +1°C° 0.1 mm 3 mps 744 mmHg 94%
    06:00 +1°C° 0.1 mm 3 mps 744 mmHg 94%
    07:00 +1°C° 0.1 mm 3 mps 743 mmHg 94%
    08:00 +1°C° 0.1 mm 3 mps 743 mmHg 95%
    09:00 +2°C° 0.1 mm 2 mps 743 mmHg 94%
    10:00 +2°C° 0.1 mm 2 mps 743 mmHg 93%
    11:00 +2°C° 0.1 mm 2 mps 743 mmHg 93%
    12:00 +2°C° 0.1 mm 2 mps 744 mmHg 92%
    13:00 +1°C° 0.1 mm 3 mps 744 mmHg 92%
    14:00 +1°C° 0.1 mm 3 mps 744 mmHg 92%
    15:00 +1°C° 0.2 mm 3 mps 745 mmHg 92%
    16:00 0°C° 0.2 mm 4 mps 745 mmHg 91%
    17:00 0°C° 0.2 mm 4 mps 746 mmHg 91%
    18:00 0°C° 0.1 mm 4 mps 746 mmHg 90%
    19:00 0°C° 0.1 mm 4 mps 747 mmHg 90%
    20:00 0°C° 0.1 mm 4 mps 747 mmHg 89%
    21:00 0°C° 0.2 mm 4 mps 747 mmHg 89%
    22:00 0°C° 0.2 mm 4 mps 748 mmHg 89%
    23:00 0°C° 0.2 mm 4 mps 748 mmHg 88%
    Show more